FLOCK 3P-43 (42007 NORAD) Tracking and Keplerian Element Data

This shows tracking and keplerian element data for the satellite.

Feedback or suggestion? Click here.




ElementValue
Catalog42007
NameFLOCK 3P-43
Epoch Orbit5551
Epoch Day46.1341855
Epoch Year2018
RAAN111.7221
Inclination97.4662
Eccentricity0.0009577
Argument of Perigee84.9089
Mean Anonmoly275.324
Mean Motion15.23742356
Decay Rate9.33E-06
L11 42007U 17008BM 18046.13418550 .00000933 00000-0 41777-4 0 9990
L22 42007 97.4662 111.7221 0009577 84.9089 275.3240 15.23742356 55517

Live tracking and technical data element details for FLOCK 3P-43 (NORAD 42007). FLOCK 3P-43 can be tracked NOW for your location showing map with azimuth and elevation plus other details from your city location.

Track the satellite on the map from your city or location and see movement details for azimuth, elevation, latitude, longitude, range, height, and movement on the map or in text.







IsCatalogInMostPopularTable: catalog: 42007, numindb: 119
Update: records affected: 1



GetName: 42007 FLOCK 3P-43

Hit Count: updated at: Wed, 14 Nov 2018 11:44:46 GMT